Content
SEND FEEDBACK

Daily
Averages
Monthly
Summary
United Kingdom

CARDIFF, WALES


Home > Europe > United Kingdom > Wales
Elevation: 220 feet     Latitude: 51 24N     Longitude: 003 21W

WEATHER
 
SELECT A DAY
Number of Records: 275,727;   Date Range: 7/1/96 - 8/18/14
 
SHARE

PRINT THIS DATA

[ ← Previous Day ]
WEATHER ALMANAC - MARCH 8, 2013
[ Next Day → ]
[ °C ]   °F
Weather ElementAverageHighLow
Temperature49.1 °F53.6 °F (1:20 pm)44.6 °F (10:50 pm)
Dewpoint48.5 °F51.8 °F (12:20 pm)44.6 °F (10:50 pm)
Humidity97.8 %100 % (12:50 am)88 % (1:20 pm)
Barometer29.42 in29.53 in (11:20 pm)29.33 in (12:50 am)
Wind Speed9 mph11.5 mph (10:50 pm)
Weather ElementAverage
Visibility2.5 mi
Wind DirectionESE (100.9 °)

Weather ElementTotal
Precipitation---
Heating Degree Days15.9 (Base 65)
Averaged from 47 records on March 8, 2013
WEATHER CONDITIONS BREAKOUT
WIND DIRECTION BREAKOUT
WEATHER BY HOUR - MARCH 8, 2013
[ °C ]   °F
Local TimeTemperatureDewpointHumidityBarometerVisibilityWind DirectionWind SpeedGust SpeedPrecipitationEventsConditions
12:50 AM48.2 °F48.2 °F100 %29.33 in0.7 miEast (100°)8.1 mphOvercast
1:20 AM48.2 °F48.2 °F100 %29.33 in0.6 miEast (100°)9.2 mphFogFog
1:50 AM48.2 °F48.2 °F100 %29.33 inEast (100°)10.4 mphFogFog
2:20 AM48.2 °F48.2 °F100 %29.33 in0.1 miEast (90°)9.2 mphFogFog
2:50 AM48.2 °F48.2 °F100 %29.33 in0.1 miEast (100°)8.1 mphFogFog
3:20 AM48.2 °F48.2 °F100 %29.33 in0.1 miEast (100°)10.4 mphFogFog
3:50 AM48.2 °F48.2 °F100 %29.33 in0.1 miEast (100°)9.2 mphFogFog
4:20 AM48.2 °F48.2 °F100 %29.33 in0.1 miEast (100°)9.2 mphFogFog
4:50 AM48.2 °F48.2 °F100 %29.36 in0.1 miEast (100°)10.4 mphFogFog
5:20 AM48.2 °F48.2 °F100 %29.36 in0.2 miEast (90°)9.2 mphFogFog
5:50 AM48.2 °F48.2 °F100 %29.36 in0.2 miEast (100°)8.1 mphFogFog
6:20 AM48.2 °F48.2 °F100 %29.36 in0.8 miEast (90°)9.2 mphDrizzle
6:50 AM48.2 °F48.2 °F100 %29.36 in0.9 miEast (100°)9.2 mphOvercast
7:20 AM48.2 °F48.2 °F100 %29.36 in1.2 miEast (100°)6.9 mphOvercast
7:50 AM48.2 °F48.2 °F100 %29.39 in1.4 miEast (100°)9.2 mphRainLight Rain
8:20 AM48.2 °F48.2 °F100 %29.39 in1.5 miEast (100°)9.2 mphRainLight Rain
8:50 AM48.2 °F48.2 °F100 %29.39 in1.6 miEast (100°)10.4 mphRainLight Rain
9:20 AM48.2 °F48.2 °F100 %29.42 in1.7 miESE (110°)9.2 mphRainLight Rain
9:50 AM50.0 °F50.0 °F100 %29.42 in1.7 miESE (110°)9.2 mphMostly Cloudy
10:20 AM50.0 °F50.0 °F100 %29.42 inESE (110°)9.2 mphRainLight Rain
10:50 AM50.0 °F50.0 °F100 %29.42 in2.5 miEast (100°)9.2 mphRainLight Rain
11:20 AM50.0 °F50.0 °F100 %29.42 in2.5 miEast (100°)10.4 mphRainLight Rain
11:50 AM50.0 °F50.0 °F100 %29.44 in4.3 miEast (100°)10.4 mphMostly Cloudy
12:20 PM51.8 °F51.8 °F100 %29.44 in4.3 miESE (110°)9.2 mphPartly Cloudy
12:50 PM51.8 °F50.0 °F94 %29.44 in6.2 miEast (100°)9.2 mphScattered Clouds
1:20 PM53.6 °F50.0 °F88 %29.44 in6.2 miEast (100°)9.2 mphScattered Clouds
1:50 PM53.6 °F50.0 °F88 %29.44 in6.2 miEast (100°)9.2 mphScattered Clouds
2:20 PM53.6 °F50.0 °F88 %29.44 in6.2 miESE (110°)9.2 mphMostly Cloudy
2:50 PM51.8 °F50.0 °F94 %29.44 in6.2 miEast (100°)8.1 mphScattered Clouds
3:20 PM51.8 °F50.0 °F94 %29.44 in6.2 miEast (100°)8.1 mphRainLight Rain
3:50 PM51.8 °F50.0 °F94 %29.44 in3.7 miEast (100°)6.9 mphRainRain
4:20 PM51.8 °F50.0 °F94 %29.44 in3.1 miEast (100°)8.1 mphRainRain
4:50 PM51.8 °F50.0 °F94 %29.44 in4.3 miEast (100°)8.1 mphMostly Cloudy
5:20 PM51.8 °F50.0 °F94 %29.47 in5.0 miEast (90°)8.1 mphMostly Cloudy
5:50 PM50.0 °F48.2 °F94 %29.47 in4.3 miEast (90°)6.9 mphScattered Clouds
6:20 PM50.0 °F48.2 °F94 %29.47 in3.1 miEast (80°)8.1 mphMostly Cloudy
6:50 PM50.0 °F48.2 °F94 %29.50 in5.0 miEast (90°)8.1 mphMostly Cloudy
7:20 PM48.2 °F48.2 °F100 %29.50 in5.6 miEast (100°)9.2 mphMostly Cloudy
7:50 PM48.2 °F46.4 °F93 %29.50 in4.3 miEast (100°)8.1 mphMostly Cloudy
8:20 PM46.4 °F46.4 °F100 %29.50 in3.1 miEast (100°)9.2 mphMostly Cloudy
8:50 PM46.4 °F46.4 °F100 %29.50 in3.1 miESE (110°)9.2 mphMostly Cloudy
9:20 PM46.4 °F46.4 °F100 %29.50 in1.7 miESE (110°)9.2 mphMostly Cloudy
9:50 PM46.4 °F46.4 °F100 %29.50 in0.4 miESE (120°)9.2 mphFogFog
10:20 PM46.4 °F46.4 °F100 %29.50 in0.1 miESE (120°)10.4 mphFogFog
10:50 PM44.6 °F44.6 °F100 %29.50 in0.1 miEast (100°)11.5 mphFogFog
11:20 PM46.4 °F46.4 °F100 %29.53 in0.2 miESE (110°)9.2 mphFogFog
11:50 PM46.4 °F46.4 °F100 %29.53 in0.9 miEast (100°)8.1 mphRainLight Rain
Hourly data recorded from EGFF, located miles away from Cardiff, Wales







STORIES FROM OUR PARTNERS